Printer-friendly version

IAU Minor Planet Center

Minor Planet Center

MPEC 2003-W33 : 2003 WB25

The following Minor Planet Electronic Circular may be linked-to from your own Web pages, but must not otherwise be redistributed electronically.


Read MPEC 2003-W32 Read MPEC 2003-W34


M.P.E.C. 2003-W33                                Issued 2003 Nov. 21, 22:29 UT

     The Minor Planet Electronic Circulars contain information on unusual
         minor planets and routine data on comets.  They are published
   on behalf of Commission 20 of the International Astronomical Union by the
          Minor Planet Center, Smithsonian Astrophysical Observatory,
                          Cambridge, MA 02138, U.S.A.

         Supported in part by the Steven and Michele Kirsch Foundation
             Prepared using the Tamkin Foundation Computer Network

                              MPC@CFA.HARVARD.EDU
          URL http://cfa-www.harvard.edu/iau/mpc.html  ISSN 1523-6714

                                   2003 WB25

Observations:
     K03W25B  C2003 11 05.38412 06 42 19.88 +48 30 55.7          19.0        704
     K03W25B  C2003 11 05.39621 06 42 20.52 +48 30 38.0          19.3        704
     K03W25B  C2003 11 05.40844 06 42 21.20 +48 30 21.3          19.1        704
     K03W25B  C2003 11 05.42043 06 42 21.77 +48 30 03.8          20.1        704
     K03W25B  C2003 11 20.44970 06 48 47.37 +39 55 27.8          18.3        704
     K03W25B  C2003 11 20.47010 06 48 46.92 +39 54 30.9          18.8        704
     K03W25B  C2003 11 20.48585 06 48 46.63 +39 53 47.2          18.8        704
     K03W25B  C2003 11 20.50435 06 48 46.23 +39 52 55.6          18.5        704
     K03W25B* C2003 11 21.38498 06 48 33.80 +39 11 34.5          18.2        704
     K03W25B  C2003 11 21.39778 06 48 33.43 +39 10 57.5          18.5        704
     K03W25B  C2003 11 21.41080 06 48 33.13 +39 10 20.4          18.5        704
     K03W25B  C2003 11 21.42423 06 48 32.75 +39 09 41.9          18.5        704
     K03W25B  C2003 11 21.43736 06 48 32.41 +39 09 04.1          18.6        704

Observer details:
704 Lincoln Laboratory ETS, New Mexico.  Observers M. Blythe, F. Shelly,
    M. Bezpalko, R. Huber, L. Manguso, D. Torres, R. Kracke, M. McCleary,
    H. Stange, A. Milner.  Measurers J. Stuart, R. Sayer, J. Evans, J. Kommers.
    1.0-m f/2.15 reflector + CCD.

Orbital elements:
2003 WB25
Epoch 2003 Oct. 28.0 TT = JDT 2452940.5                 MPC
M 326.90660              (2000.0)            P               Q
n   0.41494283     Peri.  210.87216     -0.29050584     -0.82276814
a   1.7802345      Node   260.04720     +0.94752765     -0.17617134
e   0.2865662      Incl.   29.73517     +0.13340802     -0.54038527
P   2.38           H   17.5           G   0.15
From 13 observations 2003 Nov. 5-21.

Ephemeris:
2003 WB25                a,e,i = 1.78, 0.29, 30                  q = 1.2701
Date    TT    R. A. (2000) Decl.     Delta      r     Elong.  Phase     V
2003 11 17    06 49.00   +42 23.5    0.482    1.357   131.5    33.1    18.0
2003 11 27    06 45.57   +34 10.7    0.403    1.332   143.2    26.4    17.3
2003 12 07    06 34.17   +22 20.0    0.346    1.310   156.5    17.5    16.7
2003 12 17    06 17.30   +07 27.2    0.322    1.293   161.3    14.1    16.4
2003 12 27    05 58.92   -07 15.2    0.333    1.280   148.9    23.4    16.8
2004 01 06    05 43.35   -18 30.4    0.373    1.273   134.3    33.6    17.3
2004 01 16    05 33.23   -25 43.7    0.431    1.270   122.8    40.6    17.8
2004 01 26    05 29.37   -29 53.0    0.496    1.273   114.5    44.7    18.2
2004 02 05    05 31.56   -32 02.5    0.562    1.281   108.6    46.9    18.6
2004 02 15    05 39.00   -32 56.7    0.626    1.294   104.3    47.7    18.8
2004 02 25    05 50.96   -33 01.8    0.687    1.311   101.4    47.7    19.1
2004 03 06    06 06.84   -32 35.0    0.744    1.333    99.3    47.3    19.3
2004 03 16    06 26.03   -31 46.7    0.797    1.358    98.0    46.5    19.4
2004 03 26    06 48.11   -30 43.4    0.849    1.387    97.0    45.5    19.6
2004 04 05    07 12.64   -29 30.8    0.901    1.419    96.4    44.5    19.7
2004 04 15    07 39.11   -28 12.9    0.954    1.452    95.8    43.4    19.9
2004 04 25    08 07.06   -26 53.5    1.012    1.488    95.0    42.3    20.0
2004 05 05    08 35.98   -25 36.6    1.074    1.525    94.1    41.3    20.2
2004 05 15    09 05.37   -24 25.3    1.144    1.563    92.7    40.3    20.4
2004 05 25    09 34.81   -23 22.3    1.223    1.601    91.0    39.2    20.5
2004 06 04    10 03.94   -22 30.0    1.309    1.639    88.8    38.2    20.7
2004 06 14    10 32.48   -21 48.9    1.405    1.678    86.2    37.2    20.9
2004 06 24    11 00.29   -21 19.5    1.509    1.716    83.2    36.0    21.0
2004 07 04    11 27.28   -21 01.4    1.620    1.754    79.8    34.8    21.2
2004 07 14    11 53.43   -20 53.1    1.737    1.791    76.2    33.4    21.4
2004 07 24    12 18.81   -20 53.5    1.858    1.827    72.3    32.0    21.5
2004 08 03    12 43.46   -21 00.8    1.983    1.863    68.2    30.4    21.6
2004 08 13    13 07.49   -21 13.1    2.109    1.897    63.9    28.7    21.8

Timothy B. Spahr             (C) Copyright 2003 MPC           M.P.E.C. 2003-W33

Read MPEC 2003-W32 Read MPEC 2003-W34


Our Web policy. Index to the CBAT/MPC/ICQ pages.


Valid HTML 4.01!